Location: Rockford
(42.2710°N, 89.0940°W)
Time: 21:59:09
(UTC-05:00)

Daily predictions for brighter satellites

Satellite Brightness Start Highest point End
(mag) Time Altitude Azimuth Time Altitude Azimuth Time Altitude Azimuth
ATLAS CENTAUR R/B 3.9 19:58:47 10° WSW 20:03:15 32° NW 20:07:39 10° NNE
Iridium 4 Rocket 4.5 20:04:50 10° NNE 20:09:01 25° ENE 20:12:55 10° SE
Cosmos 1536 3.4 20:05:25 10° SSW 20:09:22 65° W 20:13:23 10° N
Meteor 1-5 Rocket 4.2 20:04:55 10° S 20:10:09 61° E 20:15:32 10° NNE
ALOS 2.3 20:06:44 10° SSE 20:11:20 63° ENE 20:15:58 10° N
Cosmos 2082 4.0 20:05:52 10° NNW 20:11:23 52° ENE 20:16:51 10° SE
Cosmos 2297 Rocket 2.7 20:07:10 10° NNW 20:12:32 42° ENE 20:17:53 10° SE
RESURS DK-1 4.4 20:16:11 10° NNE 20:18:36 15° NE 20:20:59 10° E
Cosmos 1934 Rocket 4.0 20:14:04 10° S 20:20:10 77° E 20:26:24 10° N
Resurs 01 Rocket 2.8 20:16:16 10° S 20:20:30 46° W 20:24:49 10° NNW
DELTA 2 R/B (1) 3.7 20:20:30 10° W 20:26:01 65° S 20:31:01 13° ESE
USA 186 1.7 20:23:05 10° SSE 20:26:13 59° ENE 20:29:07 10° N
Cosmos 1544 Rocket 3.9 20:25:19 10° SSW 20:29:41 72° W 20:34:07 10° N
ERS-1 Rocket 3.6 20:28:01 10° SE 20:32:36 37° ENE 20:37:12 10° N
OTV 4 1.9 20:37:04 10° WSW 20:39:35 25° SSW 20:41:08 16° SSE
Cosmos 1898 Rocket 4.1 20:34:35 10° N 20:39:35 40° ENE 20:43:26 16° SE
Cosmos 1743 4.3 20:40:01 16° ESE 20:40:49 17° E 20:43:27 10° NE
BREEZE-M DEB (TANK) 4.2 20:38:25 10° SW 20:42:28 71° SE 20:57:10 10° ENE
Lacrosse 5 2.7 20:39:50 10° NW 20:44:36 39° NE 20:48:07 17° E
Tiangong 1 1.0 20:42:54 10° W 20:46:00 78° N 20:47:55 21° E
Cosmos 1697 Rocket 3.1 20:45:31 10° S 20:50:46 41° ESE 20:56:01 10° NE
SPOT 5 4.0 20:50:57 19° ESE 20:53:24 28° ENE 20:57:30 10° N
Cosmos 1975 2.8 20:51:04 10° S 20:55:10 78° E 20:59:18 10° N
Cosmos 2278 4.1 20:50:01 10° SSW 20:55:40 69° WNW 21:01:23 10° NNE
EO 1 Delta rocket 4.3 20:51:43 10° N 20:56:20 68° WNW 21:01:36 10° SSW
Cosmos 468 Rocket 4.2 20:52:48 10° S 20:57:40 46° ESE 21:02:34 10° NNE
SL-24 R/B - RUBIN 2 4.3 20:54:36 10° SSW 21:00:22 69° ESE 21:06:50 10° NE
Cosmos 2173 Rocket 4.3 20:57:00 10° SSE 21:03:00 46° E 21:09:01 10° NNE
H-2A R/B 4.2 20:59:33 10° SSW 21:03:11 38° W 21:06:54 10° NNW
Lacrosse 5 rocket 1.3 21:00:04 10° NW 21:03:44 61° SW 21:05:31 27° SSE
USA 215 4.4 21:00:24 11° E 21:05:50 33° NNE 21:11:32 10° NW
Cosmos 1814 Rocket 4.2 21:01:53 10° S 21:07:00 48° ESE 21:12:06 10° NNE
Cosmos 1605 Rocket 4.4 21:00:54 10° SSW 21:07:12 67° W 21:13:28 10° N
Cosmos 2369 4.3 21:03:50 10° SW 21:09:25 61° WNW 21:15:05 10° NNE
Cosmos 1825 Rocket 4.1 21:07:01 10° N 21:11:12 40° ENE 21:12:29 32° ESE
CZ-4 DEB 2.9 21:11:14 25° S 21:12:52 69° WSW 21:16:01 10° NNW
Cosmos 1980 Rocket 2.6 21:08:11 10° S 21:13:21 38° ESE 21:18:34 10° NE
ARGOS 4.3 21:12:12 22° E 21:13:47 26° ENE 21:18:09 10° N
Cosmos 2100 Rocket 4.0 21:08:48 10° S 21:14:59 63° E 21:21:08 10° NNE
YAOGAN 11 4.3 21:14:06 16° S 21:17:44 72° WSW 21:22:13 10° NNW
Cosmos 2061 Rocket 4.0 21:12:48 10° S 21:18:59 61° E 21:25:09 10° NNE
Cosmos 1953 Rocket 4.2 21:16:39 10° N 21:20:49 37° ENE 21:21:30 35° E
Cosmos 858 Rocket 4.4 21:18:32 10° NNW 21:23:51 86° ENE 21:26:37 29° SSE
H-2A R/B 1.9 21:23:39 43° SE 21:24:47 62° ENE 21:28:53 10° N
Terra 3.8 21:28:05 13° ENE 21:28:09 13° ENE 21:30:24 10° NNE
Cosmos 1939 Rocket 3.1 21:26:46 28° S 21:28:52 73° W 21:33:03 10° NNW
Cosmos 1666 4.4 21:31:54 21° NE 21:31:54 21° NE 21:33:34 10° NNE
MetOp-B 4.3 21:28:30 36° SE 21:30:25 55° ENE 21:35:39 10° N
OAO 2 Rocket 3.9 21:27:50 10° WSW 21:32:28 37° S 21:33:01 36° SSE
Cosmos 2298 Rocket 4.3 21:28:07 10° NNW 21:33:23 64° WSW 21:36:31 24° S
deb Chang Zheng 4 3.5 21:33:02 10° NNE 21:37:31 78° ESE 21:39:28 33° S
Nimbus 7 Rocket 4.4 21:31:52 10° NNE 21:37:57 73° ESE 21:43:22 13° S
ASTEX 1 3.5 21:33:18 10° NNE 21:38:15 56° E 21:39:19 46° SE
Cosmos 1758 Rocket 3.7 21:35:33 10° N 21:39:49 50° E 21:39:53 50° E
Envisat 3.2 21:37:26 25° S 21:40:22 68° WSW 21:45:27 10° NNW
Cosmos 2263 Rocket 3.9 21:36:53 10° N 21:40:40 18° NE 21:41:51 17° ENE
Meteor 1-21 4.2 21:34:56 10° N 21:40:43 72° E 21:42:53 40° SSE
Cosmos 2227 Rocket 4.0 21:36:10 10° NW 21:40:52 28° WSW 21:45:33 10° SSW
Cosmos 1500 4.3 21:37:33 10° SSW 21:41:08 43° WNW 21:44:46 10° N
Cosmos 1656 4.3 21:37:30 10° SW 21:43:02 56° WNW 21:48:30 10° NNE
Cosmos 1937 Rocket 3.5 21:39:17 10° NNW 21:44:34 78° WSW 21:46:32 40° S
Cosmos 2322 Rocket 3.7 21:48:05 19° ENE 21:48:05 19° ENE 21:50:12 10° NE
H-2A R/B 3.2 21:48:51 26° ENE 21:48:51 26° ENE 21:52:45 10° N
Cosmos 1725 Rocket 4.1 21:47:52 43° SE 21:49:14 51° E 21:55:15 10° NNE
Cosmos 1459 Rocket 4.0 21:43:49 10° SSW 21:49:51 76° W 21:55:59 10° N
Cosmos 2084 4.1 21:46:51 10° NW 21:50:45 44° WSW 21:51:25 41° SSW
Cosmos 1340 2.7 21:49:38 10° NNW 21:53:19 78° WNW 21:53:19 78° WNW
Cosmos 2360 4.2 21:53:09 49° SSE 21:54:16 59° ESE 21:59:55 10° NNE
Cosmos 2297 Rocket 3.8 21:51:35 10° NW 21:56:22 29° WSW 22:00:22 13° SSW
Meteor 2-9 Rocket 4.1 21:56:00 56° ESE 21:56:27 58° E 22:01:46 10° NNE
RESURS DK-1 2.6 21:52:58 10° NNW 21:57:03 59° WSW 21:57:19 58° SW
Cosmos 990 Rocket 4.0 21:53:25 10° NNW 21:58:42 80° WSW 21:59:50 55° S
YAOGAN 6 3.0 22:01:27 61° NW 22:01:27 61° NW 22:04:39 10° NNW
Cosmos 2098 Rocket 4.0 21:58:17 38° S 22:01:08 73° E 22:07:02 10° NNE
Cosmos 2227 4.1 21:55:50 10° NNW 22:01:37 81° ENE 22:02:41 60° SE
Cosmos 2058 Rocket 3.2 22:03:28 65° NE 22:03:28 65° NE 22:07:29 10° NNE
CZ-4B R/B 4.0 21:58:35 10° NNE 22:02:02 41° ENE 22:02:02 41° ENE
SPOT 1/Viking Rocket 3.4 22:07:00 71° SE 22:07:32 80° ENE 22:12:46 10° NNW
Cosmos 1606 Rocket 4.1 22:11:06 47° WSW 22:11:57 56° W 22:16:20 10° N
DELTA 2 R/B (1) 4.4 22:07:01 10° W 22:11:47 35° SSW 22:11:47 35° SSW
SL-19 R/B 4.0 22:09:01 10° NNE 22:14:33 86° ESE 22:15:14 69° S
Cosmos 2233 Rocket 4.2 22:15:54 50° E 22:15:54 50° E 22:21:38 10° NNE
Cosmos 1743 4.4 22:15:07 25° WSW 22:16:24 31° WNW 22:19:57 10° NNW
Tiangong 1 4.1 22:19:26 10° W 22:19:53 13° W 22:19:53 13° W
Cosmos 1763 Rocket 3.9 22:23:19 36° SW 22:25:14 59° WNW 22:30:15 10° NNE
Lacrosse 5 2.6 22:22:50 10° WNW 22:27:19 42° WSW 22:27:19 42° WSW
Cosmos 1125 Rocket 3.5 22:22:46 10° NNW 22:27:33 71° NNE 22:27:33 71° NNE
BREEZE-M DEB (TANK) 4.0 22:28:13 10° WNW 22:29:28 29° WNW 22:29:28 29° WNW
SPOT 5 4.2 22:30:12 31° SW 22:31:20 35° W 22:35:48 10° NNW
Cosmos 1697 Rocket 4.4 22:29:50 10° WSW 22:34:49 31° NW 22:39:49 10° N
SL-08 RB Rocket 4.4 22:39:38 55° NW 22:39:38 55° NW 22:43:28 10° NNW
SL-16 R/B 2.9 22:42:47 44° NE 22:42:47 44° NE 22:46:40 10° NNE
Cosmos 841 Rocket 4.5 22:45:13 33° WSW 22:46:58 44° WNW 22:51:57 10° N
USA 215 3.1 22:47:45 74° E 22:48:16 79° NE 22:54:50 10° NW
ARGOS 3.9 22:53:43 44° W 22:53:45 44° W 22:58:54 10° NNW
Cosmos 1980 Rocket 3.7 22:52:17 10° WSW 22:57:23 33° NW 23:02:32 10° N
Cosmos 2360 Rocket 4.2 23:01:28 18° NE 23:01:28 18° NE 23:02:55 10° NE
Terra 3.0 23:06:58 40° NNW 23:06:58 40° NNW 23:10:02 10° NNW
BREEZE-M DEB (TANK) 4.1 22:39:30 10° WNW 23:06:25 90° W 23:07:28 71° ESE
Meteor 2-5 Rocket 4.1 23:01:19 10° N 23:06:17 63° NNW 23:06:17 63° NNW
Cosmos 2263 Rocket 3.0 23:19:40 10° NNW 23:23:33 46° NW 23:23:33 46° NW
BREEZE-M DEB (TANK) 3.9 23:12:38 10° WNW 23:24:48 63° W 23:24:48 63° W
H-2A R/B 3.5 23:29:29 30° WNW 23:29:29 30° WNW 23:32:34 10° NNW
Cosmos 2322 Rocket 3.2 23:29:50 43° NW 23:29:50 43° NW 23:34:44 10° NNE
Meteor 1-24 Rocket 4.5 23:24:26 10° N 23:28:57 52° N 23:28:57 52° N
